Regional Weather Roundup
Issued by NWS

Home | Current Version | Previous Version | Graphics & Text | Print | Product List | Glossary Off
Versions: 1 2 3 4 5 6 7 8 9 10 11 12 13 14 15 16 17 18 19 20 21 22 23 24 25 26 27 28 29 30 31 32 33 34 35 36 37 38 39 40 41 42 43 44 45 46 47 48 49 50

000
ASUS43 KDMX 312107
RWRIA

WEATHER ROUNDUP FOR IOWA
NATIONAL WEATHER SERVICE DES MOINES IA
400 PM CDT TUE MAR 31 2015

NOTE: "FAIR" INDICATES FEW OR NO CLOUDS BELOW 12,000 FEET WITH NO
SIGNIFICANT WEATHER AND/OR OBSTRUCTIONS TO VISIBILITY.

* - THESE STATIONS ARE NOT NWS STATIONS...THUS NOT UNDER NWS
QUALITY CONTROL.  THEY ALSO DO NOT REPORT WEATHER SUCH
AS PRECIPITATION OR FOG.

IAZ001>003-012>014-020>022-031>034-043>046-312200-
   NORTHWEST IOWA

CITY           SKY/WX    TMP DP  RH WIND       PRES   REMARKS
CARROLL *      SUNNY     73  30  20 W14G21    29.91F
CHEROKEE *     SUNNY     73  32  21 SW6       29.90F
DENISON *      SUNNY     73  28  19 VRB6G15   29.89F
LE MARS *      SUNNY     75  30  19 SW8G15    29.89F
ORANGE CITY *  SUNNY     73  23  15 W8        29.89F
SHELDON *      SUNNY     73  32  21 SW12      29.88F
SIOUX CITY     SUNNY     79  29  16 SW10G18   29.88F
SPENCER        SUNNY     73  31  21 VRB7      29.90F
STORM LAKE *   SUNNY     72  30  21 W12G18    29.92F
$$

IAZ055>058-069>071-079>083-090>094-312200-
   SOUTHWEST IOWA

CITY           SKY/WX    TMP DP  RH WIND       PRES   REMARKS
ATLANTIC *     SUNNY     73  28  19 CALM      29.93F
AUDUBON *      SUNNY     73  16  11 NW5       29.93F
CLARINDA *     SUNNY     75  30  19 VRB5      29.94F
COUNCIL BLFS * SUNNY     75  32  20 VRB7G13   29.93F
CRESTON *      SUNNY     73  30  20 CALM      29.94F
HARLAN  *      SUNNY     73  28  19 NW7       29.95F
LAMONI         SUNNY     74  31  20 CALM      29.94F
RED OAK *      SUNNY     75  30  19 SE5G13    29.93F
SHENANDOAH *   SUNNY     75  28  17 VRB5      29.93F
$$

IAZ047>049-059>061-072>074-084-312200-
   CENTRAL IOWA

CITY           SKY/WX    TMP DP  RH WIND       PRES   REMARKS
AMES           SUNNY     73  31  21 N10G23    29.92F
ANKENY *       SUNNY     72  30  21 SW8G16    29.93F
CHARITON *     SUNNY     72  32  23 N9G20     29.94F
DES MOINES     MOSUNNY   76  29  17 NW14      29.93F
GRINNELL*      SUNNY     72  30  21 W16G23    29.93F
KNOXVILLE *    SUNNY     72  30  21 NW12G21   29.93F
MARSHALLTOWN   SUNNY     71  32  23 N14G22    29.92F
PELLA *        SUNNY     73  37  27 N6G18     29.94F
PERRY *          N/A     73  30  20 W10       29.92F
$$

IAZ004>006-015-016-023>025-035-036-312200-
   NORTH CENTRAL IOWA

CITY           SKY/WX    TMP DP  RH WIND       PRES   REMARKS
ALGONA *       SUNNY     70  32  24 NW9G20    29.91F
CLARION *      SUNNY     70  32  24 NW13      29.92F
ESTHERVILLE    SUNNY     70  30  22 W10G23    29.89F
FORT DODGE *   SUNNY     72  34  25 W5        29.92F
MASON CITY     SUNNY     67  30  25 W8        29.93F
FOREST CITY *  SUNNY     66  30  26 W12       29.92F
IOWA FALLS *     N/A     70  32  24 NW13G21   29.93F
$$

IAZ007>011-017>019-026>030-037>042-050>054-066-312200-
   NORTHEAST IOWA

CITY           SKY/WX    TMP DP  RH WIND       PRES   REMARKS
CEDAR RAPIDS   SUNNY     69  28  21 NW20G25   29.92F
CHARLES CITY * SUNNY     64  32  29 NW15G22   29.93S
CLINTON *      SUNNY     66  36  32 NW10      29.94F
DECORAH *      SUNNY     61  32  33 W12G23    29.91S
DUBUQUE        SUNNY     64  30  27 W16       29.91F
MONTICELLO *   SUNNY     66  32  28 NW16G22   29.91F
OELWEIN *      SUNNY     64  30  27 NW18G24   29.92F
WATERLOO       SUNNY     68  31  25 W10       29.92F
$$

IAZ064-065-067-068-078-312200-
   EAST CENTRAL IOWA

CITY           SKY/WX    TMP DP  RH WIND       PRES   REMARKS
DAVENPORT      MOSUNNY   67  32  27 MISG      29.92F
IOWA CITY      SUNNY     70  29  21 W18G28    29.93F
MT. PLEASANT * SUNNY     70  28  21 NW10G23   29.93F
MUSCATINE *    SUNNY     72  27  18 NW17G23   29.92F
QUAD CITIES    SUNNY     69  29  22 NW15      29.91F
$$

IAZ062-063-075>077-085>089-095>099-312200-
   SOUTHEAST IOWA

CITY           SKY/WX    TMP DP  RH WIND       PRES   REMARKS
BURLINGTON     SUNNY     71  30  21 N14G26    29.92F
FAIRFIELD *    SUNNY     72  28  20 NW15G22   29.93F
FORT MADISON * SUNNY     72  34  25 NW14G22   29.93F
KEOKUK *       SUNNY     72  32  23 NW13G20   29.93F
OSKALOOSA *      N/A     72  30  21 N14G22    29.93F
CENTERVILLE *  SUNNY     72  32  23 NW9G18    29.96F
OTTUMWA        SUNNY     73  30  20 NW13G23   29.93F
WASHINGTON *   SUNNY     72  28  20 NW22      29.92F
$$

ABBREVIATIONS USED IN REMARKS
   TC - TEMPERATURES IN CELSIUS
  WCI - WIND CHILL INDEX
   HX - HEAT INDEX
  VSB - VISIBILITY
$$




USA.gov is the U.S. government's official web portal to all federal, state and local government web resources and services.